[[{"header":{"parameterUnit":"m.s-1","parameterCategory":1,"la1":30.2991,"la2":30.254,"lo1":-89.0895,"lo2":-89.0444,"dy":0.0017,"dx":0.0017,"nx":28,"ny":28,"refTime":"2023-09-02T09:00:00:Z","depth":0,"parameterNumber":2,"parameterNumberName":"U-component_of_WINDS"},"data":[0,0,0,0,0,0,0,0,0,0,0,0,0,0,0,0,0,0,0,0,0,0,0,0,0,0,0,0,0,0,0,0,0,0,0,0,0,0,0,0,0,0,0,0,0,0,0,0,0,0,0,0,0,0,0,0,0,0,0.246,0.246,0,0.2438,0.2438,0.2437,0.2425,0.2425,0.2425,0.2425,0.2404,0.2403,0.2403,0,0,0,0,0,0,0,0,0,0,0,0,0,0.2495,0.2494,0.246,0.246,0.246,0.2438,0.2438,0.2437,0.2425,0.2425,0.2425,0.2425,0.2404,0.2403,0.2403,0,0,0,0,0,0,0,0,0,0,0,0,0,0.2477,0.2494,0.246,0.2451,0.245,0.2438,0.2438,0.2437,0.2425,0.2425,0.2425,0.2425,0.2404,0.2403,0.2403,0.2399,0,0,0.24,0.24,0,0,0,0,0,0,0,0,0.2478,0.2476,0.2453,0.2452,0.245,0.2434,0.2442,0.2424,0.2425,0.2435,0.2425,0.2425,0.2414,0.2412,0.2408,0.2398,0.2397,0.24,0.24,0.2399,0.2399,0,0,0,0,0,0,0,0.2479,0.2477,0.2451,0.2452,0.2451,0.2449,0.2446,0.2439,0.2425,0.2434,0.2433,0.243,0.2413,0.2409,0.2408,0.2397,0.24,0.2399,0.2399,0.2399,0.2383,0.2383,0,0,0,0,0,0,0.2482,0.2478,0.2452,0.2451,0.2464,0.2448,0.2445,0.2439,0.2425,0.2423,0.243,0.243,0.2411,0.2409,0.2407,0.2402,0.2399,0.2398,0.2398,0.2383,0.2383,0.2383,0,0,0,0,0,0,0.2482,0.2479,0.2453,0.2464,0.246,0.2448,0.2441,0.2439,0.2435,0.2422,0.242,0.2428,0.241,0.2408,0.2401,0.2401,0.2398,0.2397,0.2383,0.2383,0.2383,0.2392,0,0,0,0,0,0,0.2483,0.248,0.2477,0.2464,0.246,0.2447,0.2441,0.2439,0.2433,0.2432,0.242,0.2418,0.241,0.2402,0.24,0.24,0.2397,0.2383,0.2383,0.2383,0.2391,0.2392,0.2393,0,0,0,0,0,0.2485,0.2481,0.2477,0.2474,0.2457,0.2447,0.2444,0.2435,0.2433,0.2431,0.2424,0.2418,0.2402,0.2402,0.2399,0.2399,0.2383,0.2383,0.2383,0.2391,0.2392,0.2393,0,0,0,0,0,0,0.2495,0.2479,0.2475,0.2466,0.2458,0.2445,0.2442,0.2436,0.2429,0.2428,0.2418,0.2415,0.2409,0.2403,0.2404,0.2395,0.2392,0.2391,0.2399,0.24,0.24,0.2402,0.2396,0,0,0,0,0,0.2496,0.2489,0.2475,0.2469,0.2465,0.2454,0.245,0.2444,0.2435,0.2431,0.2423,0.2415,0.2408,0.2404,0.2396,0.2391,0.2389,0.239,0.239,0.2391,0.2391,0.2388,0.2389,0.2384,0.2384,0.2384,0,0,0.2498,0.2489,0.2485,0.2471,0.2464,0.2457,0.2451,0.2444,0.244,0.243,0.2423,0.2417,0.2407,0.2401,0.2398,0.2396,0.2392,0.2391,0.2392,0.2391,0.2388,0.2389,0.2389,0.2384,0.2384,0.2384,0,0,0.2499,0.2491,0.2486,0.2479,0.2468,0.2461,0.246,0.2447,0.2443,0.2435,0.2429,0.2423,0.2411,0.2405,0.24,0.2401,0.2396,0.2399,0.2403,0.24,0.2401,0.2401,0.2401,0.2402,0.2399,0.2399,0.2399,0,0.2504,0.2493,0.2484,0.2477,0.2472,0.2463,0.2458,0.2452,0.244,0.2436,0.2435,0.242,0.2413,0.2406,0.2406,0.2403,0.2401,0.24,0.2401,0.2402,0.2402,0.2402,0.2402,0.24,0.24,0.24,0.2399,0,0.2499,0.2492,0.2489,0.2477,0.2471,0.2466,0.2456,0.2452,0.2447,0.2441,0.2434,0.2426,0.2417,0.2415,0.241,0.2407,0.2406,0.2403,0.2399,0.2403,0.2403,0.2403,0.24,0.24,0.24,0.24,0,0,0.2504,0.2488,0.2487,0.2482,0.2471,0.2465,0.246,0.2451,0.2448,0.2441,0.2436,0.2427,0.2424,0.2419,0.2413,0.2411,0.2413,0.2408,0.2408,0.2409,0.241,0.2413,0.2413,0.241,0.241,0.241,0.2411,0,0.2504,0.2492,0.2485,0.2477,0.2471,0.2464,0.2459,0.2452,0.2446,0.2441,0.2435,0.2428,0.2425,0.2422,0.242,0.2413,0.2413,0.2413,0.2406,0.2406,0.2408,0.2413,0.2415,0.2416,0.2411,0.2411,0.2411,0,0.2501,0.2493,0.2485,0.2475,0.2472,0.2468,0.246,0.2455,0.2447,0.2443,0.2438,0.2433,0.2428,0.2425,0.2419,0.2419,0.2416,0.2413,0.2412,0.2411,0.2408,0.2411,0.2416,0.2416,0.2411,0.2411,0.2411,0,0.2505,0.2493,0.2487,0.2483,0.2471,0.2469,0.2464,0.2456,0.2452,0.2445,0.2443,0.2436,0.2432,0.2428,0.2421,0.242,0.2415,0.2412,0.2412,0.2412,0.2411,0.2411,0.2415,0.241,0.241,0.241,0.241,0,0.2505,0.25,0.2489,0.2485,0.248,0.2472,0.2468,0.2462,0.2456,0.2451,0.2445,0.2441,0.2433,0.2428,0.2423,0.2419,0.2417,0.2414,0.2413,0.2414,0.2415,0.2412,0.2411,0.241,0.241,0.241,0.241,0,0.2509,0.2501,0.2494,0.2484,0.2481,0.2478,0.247,0.2466,0.2461,0.2455,0.2453,0.2445,0.2439,0.2432,0.2425,0.2421,0.2417,0.2416,0.242,0.2419,0.2419,0.2419,0.2421,0.2422,0.2416,0.2416,0.2416,0,0.2509,0.2505,0.2495,0.2491,0.2486,0.2481,0.2477,0.2469,0.2465,0.2457,0.2455,0.2449,0.2443,0.2435,0.2428,0.2423,0.242,0.2422,0.2419,0.2422,0.242,0.242,0.242,0.2422,0.2422,0.2422,0.2422,0,0.251,0.2506,0.25,0.2493,0.2489,0.2483,0.2477,0.2474,0.2466,0.2462,0.2456,0.2452,0.2444,0.2439,0.2432,0.2428,0.2424,0.2423,0.2423,0.2424,0.2427,0.2425,0.2421,0.2423,0.2423,0.2423,0.2423,0.2423,0.2511,0.2508,0.2501,0.2494,0.2489,0.2484,0.248,0.2475,0.247,0.2463,0.2459,0.2453,0.2447,0.2438,0.2434,0.243,0.2429,0.2428,0.2428,0.2428,0.2429,0.2428,0.2429,0.2429,0.2429,0.2429,0.2429,0,0.2512,0.2507,0.2502,0.2494,0.2489,0.2486,0.2479,0.2476,0.2471,0.2465,0.246,0.2454,0.2449,0.2443,0.2437,0.2435,0.2433,0.2434,0.2434,0.2433,0.243,0.2431,0.2436,0.2436,0.2436,0.2436,0.2436,0.2436,0.2512,0.2506,0.2502,0.2494,0.249,0.2484,0.2481,0.2476,0.2472,0.2465,0.2461,0.2457,0.2451,0.2445,0.2441,0.2439,0.2437,0.2439,0.2436,0.2434,0.2433,0.2433,0.2433,0.2438,0.2438,0.2439,0.244,0.244]},{"header":{"parameterUnit":"m.s-1","parameterCategory":1,"la1":30.2991,"la2":30.254,"lo1":-89.0895,"lo2":-89.0444,"dy":0.0017,"dx":0.0017,"nx":28,"ny":28,"refTime":"2023-09-02T09:00:00:Z","depth":0,"parameterNumber":3,"parameterNumberName":"V-component_of_WINDS"},"data":[0,0,0,0,0,0,0,0,0,0,0,0,0,0,0,0,0,0,0,0,0,0,0,0,0,0,0,0,0,0,0,0,0,0,0,0,0,0,0,0,0,0,0,0,0,0,0,0,0,0,0,0,0,0,0,0,0,0,0.6684,0.6684,0,0.6639,0.6638,0.6638,0.6606,0.6606,0.6606,0.6606,0.6558,0.6557,0.6556,0,0,0,0,0,0,0,0,0,0,0,0,0,0.6741,0.674,0.6684,0.6684,0.6683,0.6639,0.6638,0.6637,0.6606,0.6606,0.6606,0.6606,0.6558,0.6557,0.6556,0,0,0,0,0,0,0,0,0,0,0,0,0,0.6708,0.6739,0.6684,0.6662,0.666,0.6639,0.6638,0.6637,0.6606,0.6606,0.6606,0.6605,0.6559,0.6557,0.6556,0.6553,0,0,0.6551,0.655,0,0,0,0,0,0,0,0,0.671,0.6706,0.6666,0.6664,0.6661,0.6628,0.664,0.6609,0.6607,0.6627,0.6606,0.6605,0.6582,0.6578,0.657,0.6551,0.6549,0.6551,0.655,0.6549,0.6549,0,0,0,0,0,0,0,0.6712,0.6707,0.6666,0.6665,0.6662,0.6653,0.6648,0.6634,0.6607,0.6625,0.6623,0.6618,0.658,0.6572,0.6569,0.6548,0.6551,0.6549,0.6548,0.6548,0.6519,0.652,0,0,0,0,0,0,0.6718,0.671,0.6668,0.6665,0.6685,0.6653,0.6647,0.6639,0.6607,0.6601,0.6618,0.6616,0.6575,0.6571,0.6567,0.6559,0.6549,0.6548,0.6547,0.6519,0.6519,0.652,0,0,0,0,0,0,0.6719,0.6715,0.6669,0.6686,0.668,0.6652,0.6643,0.6638,0.663,0.6601,0.6596,0.6615,0.6574,0.6569,0.6556,0.6557,0.6547,0.6546,0.6519,0.6519,0.652,0.6545,0,0,0,0,0,0,0.6721,0.6715,0.6715,0.6687,0.6679,0.666,0.6643,0.6637,0.6627,0.6625,0.6597,0.6592,0.6574,0.6558,0.6554,0.6555,0.6544,0.6519,0.6519,0.6519,0.6544,0.6546,0.6548,0,0,0,0,0,0.6723,0.6724,0.6715,0.671,0.6678,0.666,0.6656,0.6635,0.6628,0.6626,0.6607,0.6593,0.6558,0.6557,0.6552,0.6552,0.6519,0.6519,0.6519,0.6543,0.6545,0.6548,0,0,0,0,0,0,0.6754,0.672,0.671,0.6702,0.6684,0.6655,0.6653,0.6639,0.6623,0.6621,0.6595,0.6589,0.6577,0.6564,0.6564,0.6546,0.6536,0.6536,0.6555,0.6558,0.656,0.6563,0.6543,0,0,0,0,0,0.676,0.6749,0.672,0.6715,0.6707,0.6681,0.6673,0.6658,0.6638,0.663,0.6611,0.6592,0.6576,0.6566,0.655,0.6541,0.6533,0.6538,0.654,0.6542,0.6542,0.6533,0.6534,0.6521,0.6521,0.6521,0,0,0.6772,0.6752,0.6747,0.6721,0.6705,0.6693,0.6675,0.6664,0.6654,0.6629,0.6614,0.6599,0.6575,0.6563,0.6557,0.6551,0.6544,0.6543,0.6544,0.6543,0.6534,0.6535,0.6536,0.6521,0.6521,0.6521,0,0,0.6787,0.6772,0.6765,0.6749,0.6726,0.6708,0.6706,0.6679,0.6667,0.6652,0.6632,0.6619,0.6594,0.6577,0.6565,0.657,0.6556,0.6566,0.6576,0.6568,0.6569,0.6569,0.6569,0.657,0.6566,0.6566,0.6566,0,0.6804,0.6786,0.6763,0.6752,0.674,0.6716,0.6708,0.6694,0.6666,0.6658,0.6652,0.6616,0.6599,0.6581,0.6582,0.6574,0.657,0.6569,0.6571,0.6571,0.6571,0.6571,0.6571,0.6567,0.6567,0.6567,0.6566,0,0.6807,0.6795,0.6792,0.6765,0.6753,0.6743,0.6718,0.6708,0.6693,0.6676,0.6659,0.6637,0.6615,0.661,0.6596,0.6589,0.6586,0.6576,0.6565,0.6574,0.6573,0.6573,0.6569,0.6568,0.6568,0.6567,0,0,0.6842,0.6801,0.68,0.6786,0.6757,0.6746,0.6734,0.6712,0.6703,0.6684,0.6672,0.6649,0.6638,0.6625,0.6608,0.6601,0.6603,0.6591,0.659,0.6593,0.6591,0.6599,0.6599,0.6594,0.6593,0.6593,0.6593,0,0.6851,0.6829,0.6807,0.6792,0.6779,0.6754,0.6743,0.6723,0.6706,0.6691,0.6671,0.6655,0.6643,0.6634,0.6626,0.6605,0.6603,0.6605,0.658,0.658,0.6586,0.6599,0.6607,0.6608,0.6592,0.6592,0.6592,0,0.6859,0.684,0.6824,0.6794,0.6787,0.6778,0.6754,0.6741,0.6717,0.6704,0.6688,0.667,0.6654,0.6645,0.6621,0.6623,0.6612,0.6599,0.6599,0.6595,0.6586,0.6594,0.6607,0.6607,0.6592,0.6592,0.6592,0,0.6883,0.6854,0.684,0.6829,0.6794,0.6787,0.6772,0.6747,0.6735,0.6714,0.6705,0.6682,0.667,0.6652,0.6628,0.6624,0.6606,0.6596,0.6593,0.6594,0.6591,0.6591,0.6601,0.6585,0.6585,0.6585,0.6585,0,0.6895,0.6886,0.685,0.6841,0.6829,0.6803,0.6791,0.6773,0.6751,0.6737,0.6715,0.6702,0.6671,0.6653,0.6634,0.6616,0.6611,0.6599,0.6594,0.6601,0.6602,0.6592,0.6591,0.6585,0.6585,0.6585,0.6585,0,0.692,0.6896,0.6878,0.6845,0.6837,0.6829,0.68,0.679,0.677,0.6753,0.6747,0.6716,0.6694,0.6668,0.6638,0.6625,0.6608,0.6601,0.6617,0.6613,0.6612,0.6612,0.6616,0.6614,0.66,0.66,0.6601,0,0.6928,0.692,0.6886,0.6875,0.6861,0.6844,0.683,0.6803,0.679,0.676,0.6752,0.6729,0.6709,0.6675,0.6649,0.6625,0.6616,0.6619,0.6613,0.6619,0.6614,0.6615,0.6613,0.6621,0.6621,0.6621,0.6622,0,0.6945,0.6933,0.6915,0.6892,0.6876,0.6857,0.6836,0.6828,0.6797,0.6782,0.676,0.6744,0.6712,0.6688,0.6661,0.6643,0.6626,0.6624,0.6621,0.6628,0.6636,0.663,0.662,0.6624,0.6623,0.6623,0.6623,0.6623,0.6961,0.6952,0.6926,0.6905,0.6887,0.6868,0.6855,0.6834,0.6815,0.6787,0.6772,0.6749,0.6722,0.6683,0.6666,0.6647,0.6641,0.6639,0.6638,0.6637,0.6638,0.664,0.6642,0.6642,0.6642,0.6641,0.6641,0,0.6975,0.6957,0.6939,0.691,0.6893,0.6879,0.6855,0.6841,0.6822,0.6798,0.6778,0.6751,0.6727,0.6699,0.6672,0.6662,0.6653,0.6656,0.6656,0.6652,0.6646,0.665,0.6663,0.6663,0.6663,0.6663,0.6663,0.6663,0.6981,0.6963,0.6948,0.692,0.6902,0.6879,0.6866,0.6848,0.6828,0.6799,0.6779,0.6761,0.6734,0.6706,0.6682,0.6674,0.6665,0.667,0.6659,0.6654,0.6652,0.6651,0.6654,0.6668,0.6668,0.6666,0.6666,0.6666]}]]